Year,Month,Day,Hour,Minute,Value (Times are PST for temperature in C)
2008,12,16,00,00,-5.10
2008,12,16,00,01,-5.10
2008,12,16,00,02,-5.10
2008,12,16,00,03,-5.10
2008,12,16,00,04,-5.10
2008,12,16,00,05,-5.20
2008,12,16,00,06,-5.20
2008,12,16,00,07,-5.20
2008,12,16,00,08,-5.30
2008,12,16,00,09,-5.30
2008,12,16,00,10,-5.30
2008,12,16,00,11,-5.30
2008,12,16,00,12,-5.30
2008,12,16,00,13,-5.30
2008,12,16,00,14,-5.40
2008,12,16,00,15,-5.40
2008,12,16,00,16,-5.50
2008,12,16,00,17,-5.50
2008,12,16,00,18,-5.50
2008,12,16,00,19,-5.50
2008,12,16,00,20,-5.50
2008,12,16,00,21,-5.50
2008,12,16,00,22,-5.50
2008,12,16,00,23,-5.50
2008,12,16,00,24,-5.50
2008,12,16,00,25,-5.60
2008,12,16,00,26,-5.60
2008,12,16,00,27,-5.60
2008,12,16,00,28,-5.70
2008,12,16,00,29,-5.70
2008,12,16,00,30,-5.80
2008,12,16,00,31,-5.80
2008,12,16,00,32,-5.80
2008,12,16,00,33,-5.90
2008,12,16,00,34,-5.90
2008,12,16,00,35,-5.90
2008,12,16,00,36,-5.90
2008,12,16,00,37,-5.90
2008,12,16,00,38,-5.90
2008,12,16,00,39,-6.00
2008,12,16,00,40,-6.10
2008,12,16,00,41,-6.10
2008,12,16,00,42,-6.10
2008,12,16,00,43,-6.10
2008,12,16,00,44,-6.10
2008,12,16,00,45,-6.10
2008,12,16,00,46,-6.10
2008,12,16,00,47,-6.10
2008,12,16,00,48,-6.10
2008,12,16,00,49,-6.10
2008,12,16,00,50,-6.10
2008,12,16,00,51,-6.10
2008,12,16,00,52,-6.00
2008,12,16,00,53,-5.90
2008,12,16,00,54,-5.90
2008,12,16,00,55,-5.90
2008,12,16,00,56,-5.90
2008,12,16,00,57,-5.80
2008,12,16,00,58,-5.80
2008,12,16,00,59,-5.80
2008,12,16,01,00,-5.80
2008,12,16,01,01,-5.80
2008,12,16,01,02,-5.80
2008,12,16,01,03,-5.80
2008,12,16,01,04,-5.80
2008,12,16,01,05,-5.80
2008,12,16,01,06,-5.90
2008,12,16,01,07,-5.90
2008,12,16,01,08,-5.90
2008,12,16,01,09,-5.90
2008,12,16,01,10,-5.90
2008,12,16,01,11,-5.90
2008,12,16,01,12,-5.90
2008,12,16,01,13,-5.90
2008,12,16,01,14,-5.90
2008,12,16,01,15,-5.90
2008,12,16,01,16,-6.00
2008,12,16,01,17,-6.10
2008,12,16,01,18,-6.10
2008,12,16,01,19,-6.10
2008,12,16,01,20,-6.10
2008,12,16,01,21,-6.10
2008,12,16,01,22,-6.10
2008,12,16,01,23,-6.10
2008,12,16,01,24,-6.20
2008,12,16,01,25,-6.20
2008,12,16,01,26,-6.20
2008,12,16,01,27,-6.30
2008,12,16,01,28,-6.30
2008,12,16,01,29,-6.30
2008,12,16,01,30,-6.30
2008,12,16,01,31,-6.40
2008,12,16,01,32,-6.40
2008,12,16,01,33,-6.40
2008,12,16,01,34,-6.40
2008,12,16,01,35,-6.40
2008,12,16,01,36,-6.40
2008,12,16,01,37,-6.40
2008,12,16,01,38,-6.40
2008,12,16,01,39,-6.40
2008,12,16,01,40,-6.40
2008,12,16,01,41,-6.40
2008,12,16,01,42,-6.40
2008,12,16,01,43,-6.40
2008,12,16,01,44,-6.50
2008,12,16,01,45,-6.50
2008,12,16,01,46,-6.40
2008,12,16,01,47,-6.40
2008,12,16,01,48,-6.40
2008,12,16,01,49,-6.40
2008,12,16,01,50,-6.40
2008,12,16,01,51,-6.40
2008,12,16,01,52,-6.40
2008,12,16,01,53,-6.40
2008,12,16,01,54,-6.40
2008,12,16,01,55,-6.50
2008,12,16,01,56,-6.50
2008,12,16,01,57,-6.50
2008,12,16,01,58,-6.50
2008,12,16,01,59,-6.60
2008,12,16,02,00,-6.60
2008,12,16,02,01,-6.70
2008,12,16,02,02,-6.70
2008,12,16,02,03,-6.70
2008,12,16,02,04,-6.70
2008,12,16,02,05,-6.70
2008,12,16,02,06,-6.70
2008,12,16,02,07,-6.70
2008,12,16,02,08,-6.70
2008,12,16,02,09,-6.70
2008,12,16,02,10,-6.70
2008,12,16,02,11,-6.70
2008,12,16,02,12,-6.70
2008,12,16,02,13,-6.70
2008,12,16,02,14,-6.70
2008,12,16,02,15,-6.70
2008,12,16,02,16,-6.70
2008,12,16,02,17,-6.70
2008,12,16,02,18,-6.70
2008,12,16,02,19,-6.70
2008,12,16,02,20,-6.70
2008,12,16,02,21,-6.70
2008,12,16,02,22,-6.70
2008,12,16,02,23,-6.70
2008,12,16,02,24,-6.70
2008,12,16,02,25,-6.70
2008,12,16,02,26,-6.70
2008,12,16,02,27,-6.70
2008,12,16,02,28,-6.60
2008,12,16,02,29,-6.60
2008,12,16,02,30,-6.60
2008,12,16,02,31,-6.60
2008,12,16,02,32,-6.60
2008,12,16,02,33,-6.70
2008,12,16,02,34,-6.70
2008,12,16,02,35,-6.70
2008,12,16,02,36,-6.70
2008,12,16,02,37,-6.70
2008,12,16,02,38,-6.70
2008,12,16,02,39,-6.70
2008,12,16,02,40,-6.70
2008,12,16,02,41,-6.70
2008,12,16,02,42,-6.70
2008,12,16,02,43,-6.70
2008,12,16,02,44,-6.70
2008,12,16,02,45,-6.70
2008,12,16,02,46,-6.70
2008,12,16,02,47,-6.70
2008,12,16,02,48,-6.70
2008,12,16,02,49,-6.70
2008,12,16,02,50,-6.70
2008,12,16,02,51,-6.70
2008,12,16,02,52,-6.70
2008,12,16,02,53,-6.70
2008,12,16,02,54,-6.70
2008,12,16,02,55,-6.70
2008,12,16,02,56,-6.70
2008,12,16,02,57,-6.70
2008,12,16,02,58,-6.70
2008,12,16,02,59,-6.70
2008,12,16,03,00,-6.70
2008,12,16,03,01,-6.70
2008,12,16,03,02,-6.70
2008,12,16,03,03,-6.70
2008,12,16,03,04,-6.70
2008,12,16,03,05,-6.70
2008,12,16,03,06,-6.70
2008,12,16,03,07,-6.70
2008,12,16,03,08,-6.80
2008,12,16,03,09,-6.80
2008,12,16,03,10,-6.80
2008,12,16,03,11,-6.80
2008,12,16,03,12,-6.80
2008,12,16,03,13,-6.70
2008,12,16,03,14,-6.70
2008,12,16,03,15,-6.70
2008,12,16,03,16,-6.70
2008,12,16,03,17,-6.70
2008,12,16,03,18,-6.70
2008,12,16,03,19,-6.70
2008,12,16,03,20,-6.70
2008,12,16,03,21,-6.70
2008,12,16,03,22,-6.70
2008,12,16,03,23,-6.70
2008,12,16,03,24,-6.70
2008,12,16,03,25,-6.70
2008,12,16,03,26,-6.70
2008,12,16,03,27,-6.70
2008,12,16,03,28,-6.70
2008,12,16,03,29,-6.70
2008,12,16,03,30,-6.70
2008,12,16,03,31,-6.70
2008,12,16,03,32,-6.70
2008,12,16,03,33,-6.70
2008,12,16,03,34,-6.70
2008,12,16,03,35,-6.70
2008,12,16,03,36,-6.70
2008,12,16,03,37,-6.80
2008,12,16,03,38,-6.80
2008,12,16,03,39,-6.80
2008,12,16,03,40,-6.90
2008,12,16,03,41,-6.90
2008,12,16,03,42,-6.90
2008,12,16,03,43,-6.90
2008,12,16,03,44,-7.00
2008,12,16,03,45,-7.00
2008,12,16,03,46,-7.00
2008,12,16,03,47,-7.00
2008,12,16,03,48,-7.10
2008,12,16,03,49,-7.10
2008,12,16,03,50,-7.10
2008,12,16,03,51,-7.10
2008,12,16,03,52,-7.10
2008,12,16,03,53,-7.10
2008,12,16,03,54,-7.10
2008,12,16,03,55,-7.10
2008,12,16,03,56,-7.10
2008,12,16,03,57,-7.10
2008,12,16,03,58,-7.00
2008,12,16,03,59,-7.00
2008,12,16,04,00,-7.00
2008,12,16,04,01,-6.90
2008,12,16,04,02,-6.90
2008,12,16,04,03,-6.90
2008,12,16,04,04,-6.80
2008,12,16,04,05,-6.80
2008,12,16,04,06,-6.80
2008,12,16,04,07,-6.80
2008,12,16,04,08,-6.80
2008,12,16,04,09,-6.80
2008,12,16,04,10,-6.80
2008,12,16,04,11,-6.80
2008,12,16,04,12,-6.80
2008,12,16,04,13,-6.80
2008,12,16,04,14,-6.80
2008,12,16,04,15,-6.80
2008,12,16,04,16,-6.80
2008,12,16,04,17,-6.80
2008,12,16,04,18,-6.80
2008,12,16,04,19,-6.80
2008,12,16,04,20,-6.80
2008,12,16,04,21,-6.80
2008,12,16,04,22,-6.70
2008,12,16,04,23,-6.70
2008,12,16,04,24,-6.70
2008,12,16,04,25,-6.70
2008,12,16,04,26,-6.70
2008,12,16,04,27,-6.70
2008,12,16,04,28,-6.80
2008,12,16,04,29,-6.80
2008,12,16,04,30,-6.80
2008,12,16,04,31,-6.80
2008,12,16,04,32,-6.80
2008,12,16,04,33,-6.80
2008,12,16,04,34,-6.80
2008,12,16,04,35,-6.80
2008,12,16,04,36,-6.80
2008,12,16,04,37,-6.80
2008,12,16,04,38,-6.80
2008,12,16,04,39,-6.80
2008,12,16,04,40,-6.80
2008,12,16,04,41,-6.80
2008,12,16,04,42,-6.80
2008,12,16,04,43,-6.80
2008,12,16,04,44,-6.70
2008,12,16,04,45,-6.70
2008,12,16,04,46,-6.70
2008,12,16,04,47,-6.70
2008,12,16,04,48,-6.70
2008,12,16,04,49,-6.70
2008,12,16,04,50,-6.70
2008,12,16,04,51,-6.70
2008,12,16,04,52,-6.70
2008,12,16,04,53,-6.70
2008,12,16,04,54,-6.70
2008,12,16,04,55,-6.70
2008,12,16,04,56,-6.60
2008,12,16,04,57,-6.60
2008,12,16,04,58,-6.60
2008,12,16,04,59,-6.60
2008,12,16,05,00,-6.60
2008,12,16,05,01,-6.60
2008,12,16,05,02,-6.70
2008,12,16,05,03,-6.70
2008,12,16,05,04,-6.70
2008,12,16,05,05,-6.70
2008,12,16,05,06,-6.70
2008,12,16,05,07,-6.70
2008,12,16,05,08,-6.70
2008,12,16,05,09,-6.60
2008,12,16,05,10,-6.60
2008,12,16,05,11,-6.60
2008,12,16,05,12,-6.60
2008,12,16,05,13,-6.60
2008,12,16,05,14,-6.60
2008,12,16,05,15,-6.60
2008,12,16,05,16,-6.60
2008,12,16,05,17,-6.60
2008,12,16,05,18,-6.60
2008,12,16,05,19,-6.60
2008,12,16,05,20,-6.60
2008,12,16,05,21,-6.60
2008,12,16,05,22,-6.60
2008,12,16,05,23,-6.60
2008,12,16,05,24,-6.70
2008,12,16,05,25,-6.70
2008,12,16,05,26,-6.70
2008,12,16,05,27,-6.70
2008,12,16,05,28,-6.70
2008,12,16,05,29,-6.70
2008,12,16,05,30,-6.70
2008,12,16,05,31,-6.70
2008,12,16,05,32,-6.70
2008,12,16,05,33,-6.60
2008,12,16,05,34,-6.60
2008,12,16,05,35,-6.70
2008,12,16,05,36,-6.70
2008,12,16,05,37,-6.70
2008,12,16,05,38,-6.70
2008,12,16,05,39,-6.70
2008,12,16,05,40,-6.70
2008,12,16,05,41,-6.70
2008,12,16,05,42,-6.70
2008,12,16,05,43,-6.70
2008,12,16,05,44,-6.70
2008,12,16,05,45,-6.70
2008,12,16,05,46,-6.70
2008,12,16,05,47,-6.60
2008,12,16,05,48,-6.60
2008,12,16,05,49,-6.60
2008,12,16,05,50,-6.60
2008,12,16,05,51,-6.60
2008,12,16,05,52,-6.60
2008,12,16,05,53,-6.60
2008,12,16,05,54,-6.60
2008,12,16,05,55,-6.60
2008,12,16,05,56,-6.60
2008,12,16,05,57,-6.60
2008,12,16,05,58,-6.60
2008,12,16,05,59,-6.60
2008,12,16,06,00,-6.70
2008,12,16,06,01,-6.70
2008,12,16,06,02,-6.70
2008,12,16,06,03,-6.70
2008,12,16,06,04,-6.70
2008,12,16,06,05,-6.70
2008,12,16,06,06,-6.70
2008,12,16,06,07,-6.80
2008,12,16,06,08,-6.80
2008,12,16,06,09,-6.80
2008,12,16,06,10,-6.80
2008,12,16,06,11,-6.80
2008,12,16,06,12,-6.80
2008,12,16,06,13,-6.70
2008,12,16,06,14,-6.70
2008,12,16,06,15,-6.70
2008,12,16,06,16,-6.80
2008,12,16,06,17,-6.80
2008,12,16,06,18,-6.80
2008,12,16,06,19,-6.90
2008,12,16,06,20,-6.90
2008,12,16,06,21,-6.90
2008,12,16,06,22,-7.00
2008,12,16,06,23,-7.00
2008,12,16,06,24,-7.00
2008,12,16,06,25,-7.00
2008,12,16,06,26,-7.00
2008,12,16,06,27,-7.00
2008,12,16,06,28,-7.00
2008,12,16,06,29,-7.00
2008,12,16,06,30,-7.00
2008,12,16,06,31,-7.00
2008,12,16,06,32,-7.00
2008,12,16,06,33,-7.00
2008,12,16,06,34,-6.90
2008,12,16,06,35,-6.90
2008,12,16,06,36,-6.90
2008,12,16,06,37,-6.90
2008,12,16,06,38,-6.90
2008,12,16,06,39,-6.80
2008,12,16,06,40,-6.80
2008,12,16,06,41,-6.80
2008,12,16,06,42,-6.80
2008,12,16,06,43,-6.70
2008,12,16,06,44,-6.70
2008,12,16,06,45,-6.70
2008,12,16,06,46,-6.70
2008,12,16,06,47,-6.70
2008,12,16,06,48,-6.70
2008,12,16,06,49,-6.60
2008,12,16,06,50,-6.60
2008,12,16,06,51,-6.60
2008,12,16,06,52,-6.50
2008,12,16,06,53,-6.50
2008,12,16,06,54,-6.50
2008,12,16,06,55,-6.50
2008,12,16,06,56,-6.40
2008,12,16,06,57,-6.40
2008,12,16,06,58,-6.30
2008,12,16,06,59,-6.30
2008,12,16,07,00,-6.30
2008,12,16,07,01,-6.30
2008,12,16,07,02,-6.30
2008,12,16,07,03,-6.30
2008,12,16,07,04,-6.30
2008,12,16,07,05,-6.30
2008,12,16,07,06,-6.30
2008,12,16,07,07,-6.40
2008,12,16,07,08,-6.40
2008,12,16,07,09,-6.40
2008,12,16,07,10,-6.40
2008,12,16,07,11,-6.40
2008,12,16,07,12,-6.40
2008,12,16,07,13,-6.40
2008,12,16,07,14,-6.40
2008,12,16,07,15,-6.50
2008,12,16,07,16,-6.50
2008,12,16,07,17,-6.50
2008,12,16,07,18,-6.40
2008,12,16,07,19,-6.40
2008,12,16,07,20,-6.40
2008,12,16,07,21,-6.40
2008,12,16,07,22,-6.40
2008,12,16,07,23,-6.30
2008,12,16,07,24,-6.30
2008,12,16,07,25,-6.30
2008,12,16,07,26,-6.30
2008,12,16,07,27,-6.20
2008,12,16,07,28,-6.20
2008,12,16,07,29,-6.10
2008,12,16,07,30,-6.10
2008,12,16,07,31,-6.10
2008,12,16,07,32,-6.10
2008,12,16,07,33,-6.10
2008,12,16,07,34,-6.10
2008,12,16,07,35,-6.10
2008,12,16,07,36,-6.10
2008,12,16,07,37,-6.10
2008,12,16,07,38,-6.10
2008,12,16,07,39,-6.10
2008,12,16,07,40,-6.20
2008,12,16,07,41,-6.30
2008,12,16,07,42,-6.30
2008,12,16,07,43,-6.40
2008,12,16,07,44,-6.50
2008,12,16,07,45,-6.50
2008,12,16,07,46,-6.60
2008,12,16,07,47,-6.70
2008,12,16,07,48,-6.70
2008,12,16,07,49,-6.70
2008,12,16,07,50,-6.70
2008,12,16,07,51,-6.70
2008,12,16,07,52,-6.70
2008,12,16,07,53,-6.70
2008,12,16,07,54,-6.70
2008,12,16,07,55,-6.70
2008,12,16,07,56,-6.70
2008,12,16,07,57,-6.60
2008,12,16,07,58,-6.50
2008,12,16,07,59,-6.50
2008,12,16,08,00,-6.40
2008,12,16,08,01,-6.40
2008,12,16,08,02,-6.40
2008,12,16,08,03,-6.40
2008,12,16,08,04,-6.40
2008,12,16,08,05,-6.40
2008,12,16,08,06,-6.40
2008,12,16,08,07,-6.40
2008,12,16,08,08,-6.40
2008,12,16,08,09,-6.40
2008,12,16,08,10,-6.60
2008,12,16,08,11,-6.70
2008,12,16,08,12,-6.80
2008,12,16,08,13,-6.80
2008,12,16,08,14,-6.90
2008,12,16,08,15,-7.00
2008,12,16,08,16,-7.00
2008,12,16,08,17,-7.10
2008,12,16,08,18,-7.10
2008,12,16,08,19,-7.20
2008,12,16,08,20,-7.20
2008,12,16,08,21,-7.20
2008,12,16,08,22,-7.20
2008,12,16,08,23,-7.20
2008,12,16,08,24,-7.10
2008,12,16,08,25,-7.10
2008,12,16,08,26,-7.00
2008,12,16,08,27,-7.00
2008,12,16,08,28,-7.00
2008,12,16,08,29,-7.00
2008,12,16,08,30,-7.00
2008,12,16,08,31,-6.90
2008,12,16,08,32,-6.90
2008,12,16,08,33,-6.90
2008,12,16,08,34,-6.80
2008,12,16,08,35,-6.80
2008,12,16,08,36,-6.80
2008,12,16,08,37,-6.80
2008,12,16,08,38,-6.70
2008,12,16,08,39,-6.70
2008,12,16,08,40,-6.70
2008,12,16,08,41,-6.70
2008,12,16,08,42,-6.70
2008,12,16,08,43,-6.60
2008,12,16,08,44,-6.60
2008,12,16,08,45,-6.50
2008,12,16,08,46,-6.50
2008,12,16,08,47,-6.50
2008,12,16,08,48,-6.40
2008,12,16,08,49,-6.40
2008,12,16,08,50,-6.30
2008,12,16,08,51,-6.30
2008,12,16,08,52,-6.20
2008,12,16,08,53,-6.10
2008,12,16,08,54,-6.10
2008,12,16,08,55,-6.10
2008,12,16,08,56,-6.00
2008,12,16,08,57,-5.90
2008,12,16,08,58,-5.90
2008,12,16,08,59,-5.80
2008,12,16,09,00,-5.70
2008,12,16,09,01,-5.70
2008,12,16,09,02,-5.60
2008,12,16,09,03,-5.50
2008,12,16,09,04,-5.50
2008,12,16,09,05,-5.40
2008,12,16,09,06,-5.40
2008,12,16,09,07,-5.40
2008,12,16,09,08,-5.30
2008,12,16,09,09,-5.30
2008,12,16,09,10,-5.30
2008,12,16,09,11,-5.20
2008,12,16,09,12,-5.20
2008,12,16,09,13,-5.10
2008,12,16,09,14,-5.10
2008,12,16,09,15,-5.00
2008,12,16,09,16,-5.00
2008,12,16,09,17,-5.00
2008,12,16,09,18,-5.00
2008,12,16,09,19,-4.90
2008,12,16,09,20,-4.90
2008,12,16,09,21,-4.90
2008,12,16,09,22,-4.80
2008,12,16,09,23,-4.80
2008,12,16,09,24,-4.70
2008,12,16,09,25,-4.70
2008,12,16,09,26,-4.70
2008,12,16,09,27,-4.70
2008,12,16,09,28,-4.70
2008,12,16,09,29,-4.60
2008,12,16,09,30,-4.60
2008,12,16,09,31,-4.60
2008,12,16,09,32,-4.60
2008,12,16,09,33,-4.60
2008,12,16,09,34,-4.60
2008,12,16,09,35,-4.50
2008,12,16,09,36,-4.50
2008,12,16,09,37,-4.50
2008,12,16,09,38,-4.50
2008,12,16,09,39,-4.50
2008,12,16,09,40,-4.40
2008,12,16,09,41,-4.40
2008,12,16,09,42,-4.40
2008,12,16,09,43,-4.40
2008,12,16,09,44,-4.30
2008,12,16,09,45,-4.30
2008,12,16,09,46,-4.30
2008,12,16,09,47,-4.20
2008,12,16,09,48,-4.20
2008,12,16,09,49,-4.20
2008,12,16,09,50,-4.20
2008,12,16,09,51,-4.10
2008,12,16,09,52,-4.10
2008,12,16,09,53,-4.00
2008,12,16,09,54,-4.00
2008,12,16,09,55,-3.90
2008,12,16,09,56,-3.90
2008,12,16,09,57,-3.80
2008,12,16,09,58,-3.70
2008,12,16,09,59,-3.70
2008,12,16,10,00,-3.60
2008,12,16,10,01,-3.40
2008,12,16,10,02,-3.30
2008,12,16,10,03,-3.30
2008,12,16,10,04,-3.10
2008,12,16,10,05,-3.10
2008,12,16,10,06,-3.00
2008,12,16,10,07,-2.90
2008,12,16,10,08,-2.90
2008,12,16,10,09,-3.00
2008,12,16,10,10,-3.00
2008,12,16,10,11,-3.00
2008,12,16,10,12,-3.10
2008,12,16,10,13,-3.10
2008,12,16,10,14,-3.00
2008,12,16,10,15,-3.00
2008,12,16,10,16,-3.00
2008,12,16,10,17,-3.00
2008,12,16,10,18,-3.00
2008,12,16,10,19,-2.90
2008,12,16,10,20,-2.90
2008,12,16,10,21,-2.90
2008,12,16,10,22,-2.80
2008,12,16,10,23,-2.80
2008,12,16,10,24,-2.80
2008,12,16,10,25,-2.80
2008,12,16,10,26,-2.80
2008,12,16,10,27,-2.80
2008,12,16,10,28,-2.80
2008,12,16,10,29,-2.80
2008,12,16,10,30,-2.80
2008,12,16,10,31,-2.80
2008,12,16,10,32,-2.70
2008,12,16,10,33,-2.70
2008,12,16,10,34,-2.60
2008,12,16,10,35,-2.60
2008,12,16,10,36,-2.50
2008,12,16,10,37,-2.50
2008,12,16,10,38,-2.40
2008,12,16,10,39,-2.30
2008,12,16,10,40,-2.30
2008,12,16,10,41,-2.30
2008,12,16,10,42,-2.30
2008,12,16,10,43,-2.20
2008,12,16,10,44,-2.20
2008,12,16,10,45,-2.10
2008,12,16,10,46,-2.10
2008,12,16,10,47,-2.00
2008,12,16,10,48,-2.00
2008,12,16,10,49,-2.00
2008,12,16,10,50,-1.90
2008,12,16,10,51,-1.90
2008,12,16,10,52,-1.80
2008,12,16,10,53,-1.80
2008,12,16,10,54,-1.80
2008,12,16,10,55,-1.70
2008,12,16,10,56,-1.60
2008,12,16,10,57,-1.60
2008,12,16,10,58,-1.50
2008,12,16,10,59,-1.50
2008,12,16,11,00,-1.40
2008,12,16,11,01,-1.40
2008,12,16,11,02,-1.40
2008,12,16,11,03,-1.40
2008,12,16,11,04,-1.30
2008,12,16,11,05,-1.30
2008,12,16,11,06,-1.20
2008,12,16,11,07,-1.20
2008,12,16,11,08,-1.10
2008,12,16,11,09,-1.10
2008,12,16,11,10,-1.00
2008,12,16,11,11,-0.90
2008,12,16,11,12,-0.80
2008,12,16,11,13,-0.70
2008,12,16,11,14,-0.60
2008,12,16,11,15,-0.50
2008,12,16,11,16,-0.40
2008,12,16,11,17,-0.30
2008,12,16,11,18,-0.10
2008,12,16,11,19,-0.10
2008,12,16,11,20,0.10
2008,12,16,11,21,0.20
2008,12,16,11,22,0.20
2008,12,16,11,23,0.30
2008,12,16,11,24,0.30
2008,12,16,11,25,0.40
2008,12,16,11,26,0.40
2008,12,16,11,27,0.40
2008,12,16,11,28,0.40
2008,12,16,11,29,0.40
2008,12,16,11,30,0.50
2008,12,16,11,31,0.50
2008,12,16,11,32,0.60
2008,12,16,11,33,0.60
2008,12,16,11,34,0.60
2008,12,16,11,35,0.60
2008,12,16,11,36,0.60
2008,12,16,11,37,0.60
2008,12,16,11,38,0.60
2008,12,16,11,39,0.70
2008,12,16,11,40,0.80
2008,12,16,11,41,0.80
2008,12,16,11,42,0.90
2008,12,16,11,43,0.90
2008,12,16,11,44,0.90
2008,12,16,11,45,0.90
2008,12,16,11,46,0.90
2008,12,16,11,47,0.80
2008,12,16,11,48,0.80
2008,12,16,11,49,0.80
2008,12,16,11,50,0.80
2008,12,16,11,51,0.80
2008,12,16,11,52,0.80
2008,12,16,11,53,0.80
2008,12,16,11,54,0.80
2008,12,16,11,55,0.80
2008,12,16,11,56,0.90
2008,12,16,11,57,1.00
2008,12,16,11,58,1.20
2008,12,16,11,59,1.40
2008,12,16,12,00,1.60
2008,12,16,12,01,1.80
2008,12,16,12,02,2.00
2008,12,16,12,03,2.10
2008,12,16,12,04,2.20
2008,12,16,12,05,2.30
2008,12,16,12,06,2.40
2008,12,16,12,07,2.40
2008,12,16,12,08,2.50
2008,12,16,12,09,2.60
2008,12,16,12,10,2.60
2008,12,16,12,11,2.70
2008,12,16,12,12,2.70
2008,12,16,12,13,2.70
2008,12,16,12,14,2.70
2008,12,16,12,15,2.80
2008,12,16,12,16,2.80
2008,12,16,12,17,2.80
2008,12,16,12,18,2.70
2008,12,16,12,19,2.70
2008,12,16,12,20,2.60
2008,12,16,12,21,2.60
2008,12,16,12,22,2.50
2008,12,16,12,23,2.30
2008,12,16,12,24,2.20
2008,12,16,12,25,2.10
2008,12,16,12,26,2.00
2008,12,16,12,27,1.90
2008,12,16,12,28,1.90
2008,12,16,12,29,1.90
2008,12,16,12,30,1.90
2008,12,16,12,31,2.00
2008,12,16,12,32,1.90
2008,12,16,12,33,1.80
2008,12,16,12,34,1.80
2008,12,16,12,35,1.80
2008,12,16,12,36,1.80
2008,12,16,12,37,1.70
2008,12,16,12,38,1.70
2008,12,16,12,39,1.70
2008,12,16,12,40,1.80
2008,12,16,12,41,1.80
2008,12,16,12,42,1.80
2008,12,16,12,43,1.80
2008,12,16,12,44,1.80
2008,12,16,12,45,1.80
2008,12,16,12,46,1.90
2008,12,16,12,47,2.00
2008,12,16,12,48,2.20
2008,12,16,12,49,2.20
2008,12,16,12,50,2.20
2008,12,16,12,51,2.20
2008,12,16,12,52,2.30
2008,12,16,12,53,2.40
2008,12,16,12,54,2.50
2008,12,16,12,55,2.40
2008,12,16,12,56,2.30
2008,12,16,12,57,2.20
2008,12,16,12,58,2.20
2008,12,16,12,59,2.20
2008,12,16,13,00,2.20
2008,12,16,13,01,2.20
2008,12,16,13,02,2.30
2008,12,16,13,03,2.40
2008,12,16,13,04,2.40
2008,12,16,13,05,2.50
2008,12,16,13,06,2.60
2008,12,16,13,07,2.50
2008,12,16,13,08,2.50
2008,12,16,13,09,2.30
2008,12,16,13,10,2.20
2008,12,16,13,11,2.20
2008,12,16,13,12,2.30
2008,12,16,13,13,2.30
2008,12,16,13,14,2.30
2008,12,16,13,15,2.30
2008,12,16,13,16,2.20
2008,12,16,13,17,2.20
2008,12,16,13,18,2.20
2008,12,16,13,19,2.40
2008,12,16,13,20,2.40
2008,12,16,13,21,2.50
2008,12,16,13,22,2.60
2008,12,16,13,23,2.60
2008,12,16,13,24,2.60
2008,12,16,13,25,2.60
2008,12,16,13,26,2.60
2008,12,16,13,27,2.60
2008,12,16,13,28,2.70
2008,12,16,13,29,2.70
2008,12,16,13,30,2.80
2008,12,16,13,31,2.90
2008,12,16,13,32,2.90
2008,12,16,13,33,2.90
2008,12,16,13,34,3.00
2008,12,16,13,35,3.10
2008,12,16,13,36,2.90
2008,12,16,13,37,2.90
2008,12,16,13,38,2.80
2008,12,16,13,39,2.80
2008,12,16,13,40,2.70
2008,12,16,13,41,2.70
2008,12,16,13,42,2.70
2008,12,16,13,43,2.70
2008,12,16,13,44,2.70
2008,12,16,13,45,2.80
2008,12,16,13,46,2.80
2008,12,16,13,47,2.70
2008,12,16,13,48,2.60
2008,12,16,13,49,2.50
2008,12,16,13,50,2.50
2008,12,16,13,51,2.50
2008,12,16,13,52,2.60
2008,12,16,13,53,2.60
2008,12,16,13,54,2.60
2008,12,16,13,55,2.50
2008,12,16,13,56,2.40
2008,12,16,13,57,2.30
2008,12,16,13,58,2.30
2008,12,16,13,59,2.10
2008,12,16,14,00,1.90
2008,12,16,14,01,1.80
2008,12,16,14,02,1.80
2008,12,16,14,03,1.90
2008,12,16,14,04,2.10
2008,12,16,14,05,2.20
2008,12,16,14,06,2.40
2008,12,16,14,07,2.50
2008,12,16,14,08,2.60
2008,12,16,14,09,2.70
2008,12,16,14,10,2.70
2008,12,16,14,11,2.80
2008,12,16,14,12,2.80
2008,12,16,14,13,2.70
2008,12,16,14,14,2.70
2008,12,16,14,15,2.70
2008,12,16,14,16,2.60
2008,12,16,14,17,2.60
2008,12,16,14,18,2.50
2008,12,16,14,19,2.40
2008,12,16,14,20,2.30
2008,12,16,14,21,2.20
2008,12,16,14,22,2.10
2008,12,16,14,23,2.10
2008,12,16,14,24,2.20
2008,12,16,14,25,2.20
2008,12,16,14,26,2.30
2008,12,16,14,27,2.40
2008,12,16,14,28,2.40
2008,12,16,14,29,2.40
2008,12,16,14,30,2.30
2008,12,16,14,31,2.40
2008,12,16,14,32,2.50
2008,12,16,14,33,2.50
2008,12,16,14,34,2.50
2008,12,16,14,35,2.60
2008,12,16,14,36,2.60
2008,12,16,14,37,2.50
2008,12,16,14,38,2.50
2008,12,16,14,39,2.40
2008,12,16,14,40,2.30
2008,12,16,14,41,2.40
2008,12,16,14,42,2.40
2008,12,16,14,43,2.30
2008,12,16,14,44,2.30
2008,12,16,14,45,2.30
2008,12,16,14,46,2.20
2008,12,16,14,47,2.30
2008,12,16,14,48,2.30
2008,12,16,14,49,2.30
2008,12,16,14,50,2.30
2008,12,16,14,51,2.30
2008,12,16,14,52,2.40
2008,12,16,14,53,2.40
2008,12,16,14,54,2.40
2008,12,16,14,55,2.50
2008,12,16,14,56,2.50
2008,12,16,14,57,2.50
2008,12,16,14,58,2.60
2008,12,16,14,59,2.70
2008,12,16,15,00,2.70
2008,12,16,15,01,2.80
2008,12,16,15,02,2.80
2008,12,16,15,03,2.90
2008,12,16,15,04,2.90
2008,12,16,15,05,2.90
2008,12,16,15,06,3.00
2008,12,16,15,07,3.10
2008,12,16,15,08,3.00
2008,12,16,15,09,2.90
2008,12,16,15,10,2.90
2008,12,16,15,11,2.90
2008,12,16,15,12,2.90
2008,12,16,15,13,2.80
2008,12,16,15,14,2.70
2008,12,16,15,15,2.70
2008,12,16,15,16,2.70
2008,12,16,15,17,2.70
2008,12,16,15,18,2.70
2008,12,16,15,19,2.70
2008,12,16,15,20,2.70
2008,12,16,15,21,2.60
2008,12,16,15,22,2.60
2008,12,16,15,23,2.50
2008,12,16,15,24,2.50
2008,12,16,15,25,2.40
2008,12,16,15,26,2.30
2008,12,16,15,27,2.20
2008,12,16,15,28,2.20
2008,12,16,15,29,2.20
2008,12,16,15,30,2.20
2008,12,16,15,31,2.20
2008,12,16,15,32,2.20
2008,12,16,15,33,2.20
2008,12,16,15,34,2.10
2008,12,16,15,35,2.10
2008,12,16,15,36,2.00
2008,12,16,15,37,1.90
2008,12,16,15,38,1.90
2008,12,16,15,39,1.80
2008,12,16,15,40,1.80
2008,12,16,15,41,1.80
2008,12,16,15,42,1.80
2008,12,16,15,43,1.80
2008,12,16,15,44,1.80
2008,12,16,15,45,1.70
2008,12,16,15,46,1.70
2008,12,16,15,47,1.70
2008,12,16,15,48,1.70
2008,12,16,15,49,1.70
2008,12,16,15,50,1.70
2008,12,16,15,51,1.60
2008,12,16,15,52,1.60
2008,12,16,15,53,1.60
2008,12,16,15,54,1.60
2008,12,16,15,55,1.60
2008,12,16,15,56,1.60
2008,12,16,15,57,1.60
2008,12,16,15,58,1.60
2008,12,16,15,59,1.60
2008,12,16,16,00,1.60
2008,12,16,16,01,1.60
2008,12,16,16,02,1.60
2008,12,16,16,03,1.60
2008,12,16,16,04,1.60
2008,12,16,16,05,1.60
2008,12,16,16,06,1.60
2008,12,16,16,07,1.50
2008,12,16,16,08,1.50
2008,12,16,16,09,1.50
2008,12,16,16,10,1.50
2008,12,16,16,11,1.50
2008,12,16,16,12,1.50
2008,12,16,16,13,1.50
2008,12,16,16,14,1.50
2008,12,16,16,15,1.50
2008,12,16,16,16,1.50
2008,12,16,16,17,1.50
2008,12,16,16,18,1.50
2008,12,16,16,19,1.50
2008,12,16,16,20,1.50
2008,12,16,16,21,1.50
2008,12,16,16,22,1.50
2008,12,16,16,23,1.50
2008,12,16,16,24,1.50
2008,12,16,16,25,1.50
2008,12,16,16,26,1.50
2008,12,16,16,27,1.50
2008,12,16,16,28,1.50
2008,12,16,16,29,1.50
2008,12,16,16,30,1.50
2008,12,16,16,31,1.50
2008,12,16,16,32,1.50
2008,12,16,16,33,1.50
2008,12,16,16,34,1.50
2008,12,16,16,35,1.50
2008,12,16,16,36,1.50
2008,12,16,16,37,1.50
2008,12,16,16,38,1.40
2008,12,16,16,39,1.40
2008,12,16,16,40,1.40
2008,12,16,16,41,1.30
2008,12,16,16,42,1.30
2008,12,16,16,43,1.30
2008,12,16,16,44,1.30
2008,12,16,16,45,1.30
2008,12,16,16,46,1.30
2008,12,16,16,47,1.30
2008,12,16,16,48,1.30
2008,12,16,16,49,1.30
2008,12,16,16,50,1.30
2008,12,16,16,51,1.30
2008,12,16,16,52,1.30
2008,12,16,16,53,1.30
2008,12,16,16,54,1.20
2008,12,16,16,55,1.20
2008,12,16,16,56,1.20
2008,12,16,16,57,1.20
2008,12,16,16,58,1.20
2008,12,16,16,59,1.20
2008,12,16,17,00,1.20
2008,12,16,17,01,1.20
2008,12,16,17,02,1.20
2008,12,16,17,03,1.30
2008,12,16,17,04,1.30
2008,12,16,17,05,1.30
2008,12,16,17,06,1.30
2008,12,16,17,07,1.30
2008,12,16,17,08,1.30
2008,12,16,17,09,1.30
2008,12,16,17,10,1.30
2008,12,16,17,11,1.30
2008,12,16,17,12,1.30
2008,12,16,17,13,1.30
2008,12,16,17,14,1.30
2008,12,16,17,15,1.30
2008,12,16,17,16,1.20
2008,12,16,17,17,1.20
2008,12,16,17,18,1.20
2008,12,16,17,19,1.20
2008,12,16,17,20,1.20
2008,12,16,17,21,1.10
2008,12,16,17,22,1.10
2008,12,16,17,23,1.10
2008,12,16,17,24,1.10
2008,12,16,17,25,1.00
2008,12,16,17,26,1.00
2008,12,16,17,27,1.00
2008,12,16,17,28,0.90
2008,12,16,17,29,0.80
2008,12,16,17,30,0.80
2008,12,16,17,31,0.80
2008,12,16,17,32,0.80
2008,12,16,17,33,0.80
2008,12,16,17,34,0.80
2008,12,16,17,35,0.80